EHI
0 0 0 0 0 0 0 0 0 0 0 0 0 0 0 0 0 0 0 0 0 0 0 0 0 0 0 0 0 0 0 0 0 0 0 0 0 0 0 0 0 0 0
0 0 0 0 0 0 0 0 0 0 0 0 0 0 0 0 0 0 0 0 0 0 0 0 0 0 0 0 0 0 0 0 0 0 0 0 0 0 0 0 0 0 0
0 0 0 0 0 0 0 0 0 0 0 0 0 0 0 0 0 0 0 0 0 0 0 0 0 0 0 0 0 0 0 0 0 0 0 0 0 0 0 0 0 0 0
0 0 0 0 0 0 0 0 0 0 0 0 0 0 0 0 0 0 0 0 0 0 0 0 0 0 0 0 0 0 0 0 0 0 0 0 0 0 0 0 0 0 0
0 0 0 0 0 0 0 0 0 0 0 0 0 0 0 0 0 0 0 0 0 0 0 0 0 0 0 0 0 0 0 0 0 0 0 0 0 0 0 0 0 0 0
0 0 0 0 0 0 0 0 0 0 0 0 0 0 0 0 0 0 0 0 0 0 0 0 0 0 0 0 0 0 0 0 0 0 0 0 0 0 0 0 0 0 0
0 0 0 0 0 0 0 0 0 0 0 0 0 0 0 0 0 0 0 0 0 0 0 0 0 0 0 0 0 0 0 0 0 0 0 0 0 0 0 0 0 0 0
0 0 0 0 0 0 0 0 0 0 0 0 0 0 0 0 0 0 0 0 0 0 0 0 0 0 0 0 0 0 0 0 0 0 0 0 0 0 0 0 0 0 0
0 0 0 0 0 0 0 0 0 0 0 0 0 0 0 0 0 0 0 0 0 0 0 0 0 0 0 0 0 0 0 0 0 0 0 0 0 0 0 0 0 0 0
0 0 0 0 0 0 0 0 0 0 0 0 0 0 0 0 0 0 0 0 0 0 0 0 0 0 0 0 0 0 0 0 0 0 0 0 0 0 0 0 0 0 0
0 0 0 0 0 0 0 0 0 0 0 0 0 0 0 0 0 0 0 0 0 0 0 0 0 0 0 0 0 0 0 0 0 0 0 0 0 0 0 0 0 0 0
0 0 0 0 0 0 0 0 0 0 0 0 0 0 0 0 0 0 0 0 0 0 0 0 0 0 0 0 0 0 0 0 0 0 0 0 0 0 0 0 0 0 0
0 0 0 0 0 0 0 0 0 0 0 0 0 0 0 0 0 0 0 0 0 0 0 0 0 0 0 0 0 0 0 0 0 0 0 0 0 0 0 0 0 0 0
0 0 0 0 0 0 0 0 0 0 0 0 0 0 0 0 0 0 0 0 0 0 0 0 0 0 0 0 0 0 0 0 0 0 0 0 0 0 0 0 0 0 0
0 0 0 0 0 0 0 0 0 0 0 0 0 0 0 0 0 0 0 0 0 0 0 0 0 0 0 0 0 0 0 0 0 0 0 0 0 0 0 0 0 0 0
0 0 0 0 0 0 0 0 0 0 0 0 0 0 0 0 0 0 0 0 0 0 0 0 0 0 0 0 0 0 0 0 0 0 0 0 0 0 0 0 0 0 0
0 0 0 0 0 0 0 0 0 0 0 0 0 0 0 0 0 0 0 0 0 0 0 0 0 0 0 0 0 0 0 0 0 0 0 0 0 0 0 0 0 0 0
0 0 0 0 0 0 0 0 0 0 0 0 0 0 0 0 0 0 0 0 0 0 0 0 0 0 0 0 0 0 0 0 0 0 0 0 0 0 0 0 0 0 0
0 0 0 0 0 0 0 0 0 0 0 0 0 0 0 0 0 0 0 0 0 0 0 0 0 0 0 0 0 0 0 0 0 0 0 0 0 0 0 0 0 0 0
0 0 0 0 0 0 0 0 0 0 0 0 0 0 0 0 0 0 0 0 0 0 0 0 0 0 0 0 0 0 0 0 0 0 0 0 0 0 0 0 0 0 0
0 0 0 0 0 0 0 0 0 0 0 0 0 0 0 0 0 0 0 0 0 0 0 0 0 0 0 0 0 0 0 0 0 0 0 0 0 0 0 0 0 0 0
0 0 0 0 0 0 0 0 0 0 0 0 0 0 0 0 0 0 0 0 0 0 0 0 0 0 0 0 0 0 0 0 0 0 0 0 0 0 0 0 0 0 0
0 0 0 0 0 0 0 0 0 0 0 0 0 0 0 0 0 0 0 0 0 0 0 0 0 0 0 0 0 0 0 0 0 0 0 0 0 0 0 0 0 0 0
0 0 0 0 0 0 0 0 0 0 0 0 0 0 0 0 0 0 0 0 0 0 0 0 0 0 0 0 0 0 0 0 0 0 0 0 0 0 0 0 0 0 0
0 0 0 0 0 0 0 0 0 0 0 0 0 0 0 0 0 0 0 0 0 0 0 0 0 0 0 0 0 0 0 0 0 0 0 0 0 0 0 0 0 0 0
0 0 0 0 0 0 0 0 0 0 0 0 0 0 0 0 0 0 0 0 0 0 0 0 0 0 0 0 0 0 0 0 0 0 0 0 0 0 0 0 0 0 0
Wind_Speed
2 1 1 2 1 2 2 2 2 2 2 2 2 2 2 1 1 1 1 3 2 2 2 2 1 1 1 1 1 2 2 2 3 3 4 4 5 5 6 7 7 8 8
2 2 1 2 2 2 2 2 2 2 2 2 2 1 1 0 0 0 1 2 3 3 2 2 2 2 2 2 3 3 3 3 4 4 4 5 6 6 7 7 8 8 9
1 1 2 2 2 2 2 2 2 2 2 1 1 1 1 0 0 1 1 1 2 3 3 2 2 3 3 4 4 4 4 4 5 5 5 5 6 7 8 9 9 9 10
1 2 1 1 2 2 2 2 2 2 1 1 1 0 1 0 0 0 1 1 1 1 3 4 4 4 4 5 5 5 5 5 6 6 6 7 7 8 9 9 10 10 11
1 2 1 1 2 2 2 2 2 2 2 1 1 1 0 0 0 0 1 1 1 1 1 3 5 5 5 5 6 6 6 6 7 7 8 8 8 9 9 10 10 11 11
1 1 1 1 2 2 2 2 3 2 2 1 1 1 0 0 0 0 0 0 1 1 1 1 2 3 5 6 7 7 8 8 8 8 9 9 9 10 10 11 11 11 12
1 1 1 1 2 2 2 3 3 3 2 1 2 1 1 1 0 0 0 0 0 1 1 1 1 1 2 6 7 8 9 9 9 10 10 10 10 10 11 12 11 11 12
0 1 1 1 1 2 2 2 3 2 2 1 2 1 1 1 1 1 0 0 1 1 1 1 1 1 1 1 4 7 9 10 10 10 11 10 10 11 11 11 12 12 12
1 1 1 1 1 2 2 3 3 3 3 1 1 2 2 2 2 1 1 1 1 1 1 1 1 1 1 1 2 5 8 10 11 11 11 12 12 12 12 12 12 12 12
0 1 1 1 1 1 2 2 2 2 3 3 2 1 1 2 1 2 2 1 1 1 2 2 1 1 1 2 3 6 8 9 10 11 12 12 12 12 12 12 12 13 13
0 0 1 1 1 1 1 1 1 2 3 3 2 2 1 0 1 1 2 2 2 2 2 2 2 2 2 2 2 5 7 9 10 11 11 12 12 12 12 12 13 13 14
1 0 1 1 1 1 1 1 2 2 3 3 2 2 2 2 2 2 2 2 3 2 2 2 2 2 2 2 3 6 7 8 9 10 10 11 11 12 12 12 13 13 14
1 1 1 1 1 1 1 1 2 2 3 3 3 3 3 2 2 2 2 2 2 2 2 2 2 2 2 2 3 7 7 9 9 10 10 10 11 11 12 12 13 13 14
1 1 1 1 2 2 2 2 2 3 2 3 4 4 3 3 2 2 2 2 2 2 2 3 2 2 2 2 4 6 4 8 9 9 9 10 10 11 11 12 12 13 13
1 1 1 1 2 2 2 3 3 3 3 3 3 4 3 3 2 2 2 3 3 3 4 3 2 2 2 2 4 3 3 7 9 9 9 10 10 10 11 11 11 12 12
2 2 2 2 2 2 3 3 3 3 3 3 3 3 4 3 2 3 3 3 3 3 4 2 2 2 2 3 5 3 4 9 9 9 10 9 9 10 10 10 11 12 12
2 2 2 2 2 2 3 3 4 3 4 3 3 3 4 4 3 3 3 3 3 3 4 4 2 2 2 3 4 3 3 4 4 9 10 10 10 10 10 11 12 12 13
1 2 2 2 2 2 2 3 4 4 4 4 4 4 4 3 4 3 3 4 4 4 4 5 3 2 3 3 3 4 4 4 4 7 9 10 10 10 10 11 12 12 12
1 1 1 2 2 2 3 3 4 4 4 5 4 5 5 5 5 4 4 4 3 3 3 3 4 2 2 2 2 3 4 4 4 6 8 9 10 10 10 10 11 11 11
1 2 2 2 2 3 3 3 3 4 4 4 4 4 5 5 5 5 4 5 4 3 3 3 3 2 2 2 2 3 4 3 4 4 6 7 8 9 10 10 10 10 10
2 2 2 2 2 3 3 3 3 3 3 3 3 4 4 5 6 5 4 4 4 4 3 3 3 3 2 2 3 2 4 4 4 3 3 3 4 4 5 8 9 9 10
2 2 2 2 2 2 4 4 2 1 1 2 2 2 2 3 4 6 6 6 5 4 4 4 3 4 4 3 3 3 3 4 4 2 2 4 2 4 4 3 7 9 10
2 1 1 1 1 3 4 3 3 1 1 1 2 1 2 2 3 2 3 4 4 5 6 4 4 4 4 4 3 4 4 4 4 3 3 4 3 4 4 5 9 9 10
1 1 1 1 1 2 4 3 3 1 0 1 1 2 1 2 2 2 1 1 2 3 4 3 3 4 4 4 4 4 4 4 4 2 2 4 3 4 4 4 8 9 10
1 1 1 1 1 2 3 3 3 0 0 1 1 1 1 2 3 3 1 1 2 2 3 4 4 4 5 5 3 1 2 2 4 3 1 2 3 3 3 3 5 8 9
1 1 2 1 1 2 3 3 2 0 0 1 1 1 3 3 4 4 1 1 2 2 2 2 3 3 3 3 4 2 2 3 3 3 1 1 2 3 3 2 2 3 4
Wind_Direction
139 141 135 127 130 123 125 117 113 112 106 97 96 99 91 68 66 40 356 13 8 349 329 311 282 240 257 274 292 301 300 312 313 309 308 311 308 307 307 305 308 310 307
149 148 146 147 144 146 142 136 137 133 133 119 103 103 112 89 66 53 3 357 4 2 350 338 327 323 320 304 296 297 298 300 303 304 306 306 304 301 300 301 302 305 307
113 140 149 164 164 153 141 128 117 117 113 106 107 114 118 90 77 61 19 16 1 5 4 356 343 338 336 329 310 295 293 295 293 291 293 298 302 302 301 300 301 302 302
98 108 126 157 153 145 138 135 123 120 121 127 134 132 102 88 58 51 44 35 23 5 354 358 343 333 331 328 328 317 299 296 293 292 289 291 292 296 301 303 301 300 300
88 107 114 118 132 132 134 139 133 140 145 148 163 120 96 125 271 74 66 47 33 15 11 360 357 350 338 330 327 326 323 315 308 301 295 289 288 291 294 297 301 302 301
101 118 120 101 119 130 138 142 142 132 146 152 129 81 48 48 56 58 217 69 35 2 19 8 350 343 343 334 327 322 320 319 317 312 307 301 294 292 292 294 295 299 302
126 136 114 128 129 137 156 158 152 142 126 111 97 43 351 38 58 267 230 186 351 326 350 343 339 343 337 337 333 326 320 318 315 314 315 313 307 302 299 295 294 297 298
172 169 139 156 145 132 133 149 153 149 131 121 125 121 333 330 315 279 251 223 266 293 301 307 305 317 325 321 328 330 325 320 316 315 316 318 316 315 310 307 303 300 300
159 163 155 155 154 153 169 177 166 151 163 171 135 141 152 223 293 287 250 234 264 259 272 284 285 291 305 305 305 319 321 315 312 313 315 315 314 312 311 310 311 310 309
174 155 138 149 159 168 174 187 179 168 168 177 180 187 164 158 175 286 288 269 273 265 271 290 283 277 290 294 305 315 318 317 315 313 313 312 310 311 311 313 312 311 311
277 146 134 131 147 172 199 189 199 183 181 183 179 169 169 151 160 201 269 287 293 264 263 262 259 264 273 273 282 302 315 318 318 316 314 312 312 313 312 312 312 312 312
325 314 127 151 179 185 204 208 214 207 197 188 193 185 175 175 189 194 236 265 277 272 264 253 245 246 251 259 288 308 311 314 315 315 316 316 315 315 314 313 313 312 313
304 261 217 215 220 218 218 212 211 220 206 198 206 215 210 208 188 186 205 248 276 287 276 258 242 244 257 259 281 299 302 308 309 311 313 314 314 314 314 313 313 313 313
264 264 234 237 238 231 233 222 220 223 214 215 219 215 218 217 204 195 188 194 274 279 265 261 257 244 263 263 279 294 295 304 305 308 309 308 309 311 311 312 311 311 312
264 255 240 242 244 237 238 231 226 222 213 220 225 216 216 219 214 213 203 192 198 251 264 250 252 267 279 278 286 288 286 298 303 301 302 302 304 308 309 310 310 310 310
253 251 250 245 248 246 243 240 233 225 216 225 224 220 220 218 218 214 210 211 209 222 255 254 248 271 288 290 294 298 285 299 301 298 297 298 302 304 305 307 308 308 308
264 260 258 257 253 251 243 241 235 222 219 226 224 221 228 217 214 216 212 209 216 216 249 270 257 271 265 276 297 296 289 285 288 296 301 301 301 302 303 305 305 305 306
279 266 267 265 263 262 251 241 234 224 218 225 227 221 232 227 218 216 215 218 223 221 233 268 276 264 260 264 277 285 292 292 283 296 301 302 302 302 303 303 303 303 304
293 290 269 264 268 265 262 248 231 228 224 226 224 222 227 222 222 221 221 223 227 235 233 251 269 263 264 272 287 286 285 286 290 298 300 299 299 301 302 304 305 307 307
279 280 273 271 273 269 263 249 238 232 227 230 227 226 229 225 223 224 227 223 222 229 235 246 264 272 268 267 268 280 293 289 291 298 295 295 296 300 303 305 306 308 308
279 274 272 277 279 270 259 252 241 234 228 231 234 236 238 238 238 239 238 227 218 223 230 246 260 271 266 264 263 266 283 295 285 274 286 288 291 289 296 300 302 304 307
285 277 264 263 277 283 291 288 281 239 232 232 241 255 252 241 249 258 262 261 247 232 233 239 255 261 265 258 262 268 279 293 292 282 287 288 282 282 284 281 298 304 308
293 293 274 265 276 281 297 298 310 305 244 234 236 254 282 283 285 247 268 285 281 274 257 247 250 257 258 249 253 265 265 272 271 281 294 288 288 284 290 300 307 310 313
314 306 303 300 287 290 309 314 326 333 289 279 264 254 252 268 273 275 255 281 276 277 270 258 243 253 256 251 241 245 255 273 270 264 257 279 291 287 296 297 309 313 317
343 323 308 313 298 301 312 322 339 30 23 332 315 305 299 269 285 308 310 273 284 289 294 287 285 284 282 278 273 268 263 276 284 278 239 263 285 294 291 291 305 319 322
340 346 351 341 299 297 319 340 344 96 30 348 348 339 312 304 304 309 279 247 274 285 299 321 318 314 308 305 300 274 249 261 281 285 254 266 290 315 309 293 300 313 317